This is the latest recevied weather packets stored in our database for station/object KB4MOX. If no packets are shown the sender has not sent any weather packets the latest 10 day(s).
| Time | Temp. | Humidity | Pressure | Rain* | Wind** | Luminosity | Snow |
|---|---|---|---|---|---|---|---|
| 1787402255 | 22.22° C | 97% | 1016.5 hPa | 0 mm | - | 70 W/m² | - |
| 1787401950 | 22.22° C | 97% | 1016.4 hPa | 0 mm | - | 63 W/m² | - |
| 1787401646 | 22.22° C | 97% | 1016.4 hPa | 0 mm | - | 56 W/m² | - |
| 1787401342 | 21.67° C | 97% | 1016.6 hPa | 0 mm | - | 53 W/m² | - |
| 1787401037 | 21.67° C | 97% | 1016.4 hPa | 0 mm | - | 49 W/m² | - |
| 1787400733 | 21.67° C | 97% | 1016.4 hPa | 0 mm | - | 45 W/m² | - |
| 1787400432 | 21.67° C | 97% | 1016.4 hPa | 0 mm | - | 38 W/m² | - |
| 1787400128 | 21.67° C | 97% | 1016.5 hPa | 0 mm | - | 33 W/m² | - |
| 1787399825 | 21.67° C | 97% | 1016.4 hPa | 0 mm | - | 28 W/m² | - |
| 1787399521 | 21.67° C | 97% | 1016.3 hPa | 0 mm | - | 24 W/m² | - |
| 1787399219 | 21.67° C | 97% | 1016.4 hPa | 0 mm | - | 20 W/m² | - |
| 1787398914 | 21.67° C | 97% | 1016.2 hPa | 0 mm | - | 16 W/m² | - |
| 1787398610 | 21.67° C | 97% | 1016.4 hPa | 0 mm | - | 15 W/m² | - |
| 1787398306 | 21.67° C | 97% | 1016.3 hPa | 0 mm | - | 13 W/m² | - |
| 1787398007 | 21.67° C | 97% | 1016.3 hPa | 0 mm | - | 12 W/m² | - |
| 1787397706 | 21.67° C | 97% | 1016.3 hPa | 0 mm | - | 10 W/m² | - |
| 1787397406 | 21.67° C | 97% | 1016.4 hPa | 0 mm | - | 9 W/m² | - |
| 1787397101 | 21.67° C | 97% | 1016.1 hPa | 0 mm | - | 6 W/m² | - |
| 1787396797 | 21.11° C | 97% | 1016 hPa | 0 mm | - | 4 W/m² | - |
| 1787396492 | 21.11° C | 97% | 1015.9 hPa | 0 mm | - | 2 W/m² | - |
| 1787396192 | 21.11° C | 97% | 1015.8 hPa | 0 mm | - | 1 W/m² | - |
| 1787395887 | 21.11° C | 97% | 1015.7 hPa | 0 mm | - | 0 W/m² | - |
| 1787395587 | 21.11° C | 97% | 1015.8 hPa | 0 mm | - | 0 W/m² | - |
| 1787395282 | 21.11° C | 97% | 1015.8 hPa | 0 mm | - | 0 W/m² | - |
| 1787394976 | 21.11° C | 97% | 1015.8 hPa | 0 mm | - | 0 W/m² | - |
* Rain latest hour (hover to see other rain measurements)
** Current wind speed in m/s (hover to see current wind gust speed)